Weather History for Paducah, KY

Change the Weather History Date:

Monday, May 21, 2012

  Actual Average Record
Temperature  
Mean Temperature 69 °F 68 °F  
Max Temperature 79 °F 79 °F 94 °F (1987)
Min Temperature 59 °F 58 °F 41 °F (1954)
Degree Days  
Heating Degree Days 0 1  
Month to date heating degree days 11 55  
Since 1 July heating degree days 3212 4119  
Cooling Degree Days 4 5  
Month to date cooling degree days 142 70  
Year to date cooling degree days 278 112  
Growing Degree Days 21 (Base 50)    
Moisture  
Dew Point 60 °F    
Average Humidity 72    
Maximum Humidity 100    
Minimum Humidity 43    
Precipitation  
Precipitation T in 0.14 in 1.25 in (2013)
Month to date precipitation 0.32 3.49  
Year to date precipitation 10.62 19.77  
Snow  
Snow 0.00 in 0.00 in - ()
Month to date snowfall 0.0 0.0  
Since 1 July snowfall 0.7 9.1  
Snow Depth 0.00 in    
Sea Level Pressure  
Sea Level Pressure 30.05 in    
Wind  
Wind Speed 7 mph (NNW)    
Max Wind Speed 14 mph    
Max Gust Speed 22 mph    
Visibility 7 miles    
Events      
T = Trace of Precipitation, MM = Missing Value Source: NWS Daily Summary

Daily Weather History Graph

Daily Weather History Graph

Search for Another Location

Airport:

Trip Planner

Search our weather history database for the weather conditions in past years. The results will help you decide how hot, cold, wet, or windy it might be!

Date:

Astronomy

May. 21, 2012 Rise Set
Actual Time 5:42 AM CDT 8:01 PM CDT
Civil Twilight 5:12 AM CDT 8:31 PM CDT
Nautical Twilight 4:36 AM CDT 9:07 PM CDT
Astronomical Twilight 3:56 AM CDT 9:47 PM CDT
Moon 6:05 AM CDT (5/21) 8:51 PM CDT (5/21)
Length of Visible Light 15h 18m
Length of Day
14h 19m
New Moon, 0% of the Moon is Illuminated
May 21
New Moon
May 28
First Quarter
Jun 4
Full
Jun 11
Last Quarter
Jun 19
New

Hourly Weather History & Observations

Time (CDT) Temp. Dew Point Humidity Pressure Visibility Wind Dir Wind Speed Gust Speed Precip Events Conditions
12:53 AM 66.0 °F 64.0 °F 93% 30.06 in 7.0 mi WSW 3.5 mph - N/A   Overcast
1:53 AM 64.9 °F 64.0 °F 97% 30.04 in 5.0 mi North 3.5 mph - N/A   Clear
2:53 AM 64.9 °F 63.0 °F 93% 30.02 in 4.0 mi SW 3.5 mph - N/A   Clear
3:53 AM 64.0 °F 63.0 °F 96% 30.02 in 3.0 mi Calm Calm - N/A   Mostly Cloudy
4:19 AM 64.4 °F 62.6 °F 94% 30.04 in 2.5 mi West 3.5 mph - 0.00 in   Overcast
4:50 AM 64.4 °F 62.6 °F 94% 30.05 in 3.0 mi Calm Calm - 0.00 in   Mostly Cloudy
4:53 AM 64.0 °F 63.0 °F 96% 30.04 in 4.0 mi Calm Calm - 0.00 in   Scattered Clouds
5:09 AM 62.6 °F 62.6 °F 100% 30.05 in 2.0 mi NNE 3.5 mph - N/A   Partly Cloudy
5:20 AM 64.4 °F 62.6 °F 94% 30.05 in 4.0 mi NNE 4.6 mph - N/A   Clear
5:53 AM 64.0 °F 62.1 °F 93% 30.05 in 2.5 mi Calm Calm - N/A   Clear
6:41 AM 64.4 °F 62.6 °F 94% 30.06 in 3.0 mi Calm Calm - N/A   Clear
6:53 AM 64.9 °F 63.0 °F 93% 30.05 in 3.0 mi West 3.5 mph - N/A   Clear
7:53 AM 68.0 °F 64.0 °F 87% 30.06 in 5.0 mi NNW 4.6 mph - N/A   Partly Cloudy
8:14 AM 68.0 °F 64.4 °F 88% 30.07 in 6.0 mi NNW 10.4 mph - N/A   Mostly Cloudy
8:40 AM 69.8 °F 64.4 °F 83% 30.08 in 6.0 mi North 8.1 mph - N/A   Haze
8:53 AM 69.1 °F 64.0 °F 84% 30.07 in 7.0 mi NNW 9.2 mph - N/A   Mostly Cloudy
9:25 AM 69.8 °F 62.6 °F 78% 30.08 in 8.0 mi North 8.1 mph - N/A   Overcast
9:53 AM 69.1 °F 62.1 °F 78% 30.07 in 8.0 mi NNW 8.1 mph - N/A   Overcast
10:53 AM 73.9 °F 64.0 °F 71% 30.07 in 9.0 mi North 8.1 mph - N/A   Mostly Cloudy
11:53 AM 75.9 °F 62.1 °F 62% 30.07 in 10.0 mi NNW 10.4 mph - N/A   Mostly Cloudy
12:00 PM 75.2 °F 60.8 °F 61% 30.08 in 10.0 mi Variable 3.5 mph - N/A   Mostly Cloudy
12:53 PM 77.0 °F 60.1 °F 56% 30.06 in 10.0 mi North 6.9 mph - N/A   Overcast
1:53 PM 75.9 °F 55.9 °F 50% 30.05 in 10.0 mi NNW 11.5 mph - N/A   Mostly Cloudy
2:53 PM 77.0 °F 55.9 °F 48% 30.03 in 10.0 mi Variable 3.5 mph - N/A   Overcast
3:53 PM 77.0 °F 57.0 °F 50% 30.01 in 10.0 mi NW 10.4 mph - N/A   Overcast
4:53 PM 75.9 °F 55.0 °F 48% 30.01 in 10.0 mi NW 8.1 mph 17.3 mph N/A   Mostly Cloudy
5:53 PM 77.0 °F 54.0 °F 45% 30.00 in 10.0 mi North 13.8 mph - N/A   Scattered Clouds
6:53 PM 73.9 °F 51.1 °F 45% 30.00 in 10.0 mi NNW 6.9 mph - N/A   Partly Cloudy
7:53 PM 70.0 °F 51.1 °F 51% 30.01 in 10.0 mi North 10.4 mph - N/A   Clear
8:53 PM 66.9 °F 51.1 °F 57% 30.02 in 10.0 mi North 6.9 mph - N/A   Clear
9:53 PM 64.9 °F 50.0 °F 58% 30.04 in 10.0 mi NNW 8.1 mph - N/A   Clear
10:53 PM 63.0 °F 50.0 °F 63% 30.04 in 10.0 mi NNW 10.4 mph - N/A   Clear
11:53 PM 60.8 °F 51.8 °F 72% 30.05 in 10.0 mi North 6.9 mph - N/A   Clear